Location: Bailleul
(50.3375°N, 2.8513°E)
Time: 05:22:44
(UTC+00:00)

Meteor 1-4 Rocket - Pass Details

Date: 19 April 2021
Orbit: 448 x 499 km, 81.2° (Epoch: 09 May)

Event Time Altitude Azimuth Distance (km) Brightness Sun altitude
Exits shadow 20:41:56 19° 74° (ENE) 1,162 4.2 -16.1°
Drops below altitude 10° 20:43:53 10° 42° (NE) 1,615 5.2 -16.4°
Sets 20:46:21 0° 25° (NNE) 2,506 6.4 -16.7°
